sat.trackr.live / text

‹ back to catalog

PACE

NORAD 58928 · 2024-025A

PAYLOAD ACTIVE UNKNOWN

§ Identity

Operator
Country
US
Launch date
2024-02-08
Launch site
AFETR
Launch vehicle
Mass (kg)
RCS (m²)

External: N2YO · Heavens-Above · Gunter

§ Orbital elements

Epoch: 2026-09-22T16:33:29.632320Z

Period
98.25 min
Inclination
98.0968°
Eccentricity
0.0001396
Mean motion
14.65610479 rev/d
Perigee alt
674.1 km
Apogee alt
676.1 km
Semi-major
7,053.3 km
B*
5.4068e-5
RAAN
195.5696°
Arg perigee
353.8365°
Mean anomaly
6.2821°
Rev number
14,021

§ Raw data

PACE1 58928U 24025A   26265.68992630  .00000246  00000+0  54068-4 0  99972 58928  98.0968 195.5696 0001396 353.8365   6.2821 14.65610479140217

JSON: /api/v1/satellites/58928 · /tle

For live sub-satellite position, see the globe view (requires WebGL).

§ Visibility from observer

Set your observer location to see the next 7 days of passes ≥ 10°. The values pass through the URL so the page stays shareable.

No JS? Fill the form by hand. The geolocation button needs JavaScript.

§ Radio — SatNOGS DB

ModeDescriptionDownlinkUplink
FM S-band telemetry 2.273 GHz

1 transmitter · refreshed weekly from db.satnogs.org